EGUN

RAF Mildenhall

Airport
ICAO code
EGUN
IATA Code
MHZ
Summary
ICAO Region
EUR
ICAO Territory
Location

Mildenhall, Suffolk, England

Serving
Mildenhall
Elevation
33 ft
Coordinates
52° 21' 43" N , 0° 29' 11" E
Metar
EGUN 180255Z 27001KT 9999 BKN200 11/09 A2992 RMK AO2A SLP135 T01130092 50000 $

Royal Air Force Mildenhall is a Royal Air Force station located near Mildenhall in Suffolk, England.

Runways

Designator Length Width Surface Rops
11/29 2811 61 PEM No/No

Airport map

Aerial View

SKYbrary Partners:

Safety knowledge contributed by: